Location: Warszawa
(52.2500°N, 21.0000°E)
Time: 23:07:29
(UTC+01:00)

A-11 Canister half - Pass Details

Date: 08 February 2023
Orbit: 1526 x 1682 km, 47.3° (Epoch: 22 March)

Event Time Altitude Azimuth Distance (km) Brightness Sun altitude
Exits shadow 06:09:13 - 251° (WSW) 4,350 10.9 -9.0°
Reaches altitude 10° 06:11:16 10° 249° (WSW) 3,692 10.5 -8.7°
Maximum altitude 06:20:23 64° 171° (S) 1,676 9.4 -7.3°
Drops below altitude 10° 06:29:40 10° 93° (E) 3,750 12.6 -6.0°
Sets 06:32:47 0° 91° (E) 4,753 13.3 -5.5°
